Location: Unspecified
(0.0000°N, 0.0000°E)
Time: 13:26:12
(UTC+00:00)

Courier 1B - All Passes

Search period start: 22 February 2017 00:00
Search period end: 04 March 2017 00:00
Orbit: 962 x 1209 km, 28.3° (Epoch: 21 February)

Date Brightness Start Highest point End Pass type
(mag) Time Alt. Az. Time Alt. Az. Time Alt. Az.
22 Feb - 00:59:53 10° NW 01:02:46 13° NNW 01:05:36 10° N night (unlit)
22 Feb - 06:48:33 10° N 06:51:22 13° NNE 06:54:13 10° NE daylight
22 Feb - 08:39:38 10° NW 08:45:52 46° NNE 08:52:22 10° ESE daylight
22 Feb - 10:33:32 10° WNW 10:39:59 49° SSW 10:46:50 10° SE daylight
22 Feb - 12:30:45 10° WSW 12:34:49 16° SSW 12:39:01 10° SSE daylight
22 Feb - 18:20:16 10° SSW 18:24:32 15° SSE 18:28:46 10° SE daylight
22 Feb - 20:12:18 10° SW 20:19:42 44° SSE 20:26:48 10° E visible
22 Feb - 22:06:34 10° WSW 22:14:07 59° NNW 22:21:16 10° NE visible
23 Feb - 00:03:58 10° WNW 00:08:40 18° NNW 00:13:14 10° NNE night (unlit)
23 Feb - 07:46:22 10° NNW 07:52:05 33° NNE 07:57:59 10° E daylight
23 Feb - 09:39:37 10° WNW 09:46:10 68° SSW 09:53:05 10° SE daylight
23 Feb - 11:35:45 10° WSW 11:40:42 21° SSW 11:45:51 10° SSE daylight
23 Feb - 17:27:42 10° S 17:30:10 12° SSE 17:32:38 10° SE daylight
23 Feb - 19:18:42 10° SW 19:25:37 33° SSE 19:32:23 10° E visible
23 Feb - 21:12:21 10° WSW 21:20:11 81° NNW 21:27:37 10° ENE visible
23 Feb - 23:08:42 10° W 23:14:39 25° NNW 23:20:20 10° NNE night (unlit)
24 Feb - 06:53:15 10° NNW 06:58:16 23° NNE 07:03:20 10° ENE daylight
24 Feb - 08:45:53 10° WNW 08:52:24 86° NNE 08:59:14 10° ESE daylight
24 Feb - 10:41:08 10° W 10:46:41 27° SSW 10:52:30 10° SSE daylight
24 Feb - 18:25:16 10° SSW 18:31:30 25° SSE 18:37:39 10° ESE visible
24 Feb - 20:18:20 10° SW 20:26:13 76° SSE 20:33:48 10° ENE visible
24 Feb - 22:13:49 10° W 22:20:39 34° NNW 22:27:10 10° NE visible
25 Feb - 00:14:33 10° NNW 00:15:42 10° NNW 00:16:50 10° NNW night (unlit)
25 Feb - 06:00:21 10° NNW 06:04:22 17° NNE 06:08:21 10° ENE daylight
25 Feb - 07:52:19 10° NW 07:58:41 61° NNE 08:05:15 10° ESE daylight
25 Feb - 09:46:48 10° W 09:52:47 37° SSW 09:59:03 10° SE daylight
25 Feb - 11:45:27 10° SW 11:47:46 12° SSW 11:50:08 10° S daylight
25 Feb - 17:32:02 10° SSW 17:37:17 19° SSE 17:42:32 10° ESE daylight
25 Feb - 19:24:30 10° SW 19:32:13 57° SSE 19:39:45 10° ENE visible
25 Feb - 21:19:13 10° WSW 21:26:40 47° NNW 21:33:47 10° NE visible
25 Feb - 23:17:34 10° NW 23:21:30 15° NNW 23:25:19 10° N night (unlit)
26 Feb - 05:07:54 10° N 05:10:20 12° NNE 05:12:47 10° NE visible
26 Feb - 06:58:52 10° NW 07:04:56 43° NNE 07:11:06 10° E daylight
26 Feb - 08:52:41 10° WNW 08:58:57 51° SSW 09:05:30 10° SE daylight
26 Feb - 10:49:50 10° WSW 10:53:37 15° SSW 10:57:30 10° SSE daylight
26 Feb - 16:39:08 10° S 16:43:00 14° SSE 16:46:54 10° SE daylight
26 Feb - 18:30:50 10° SW 18:38:10 42° SSE 18:45:27 10° E visible
26 Feb - 20:24:53 10° WSW 20:32:40 64° NNW 20:40:13 10° NE visible
26 Feb - 22:21:57 10° WNW 22:27:21 20° NNW 22:32:35 10° NNE visible
27 Feb - 06:05:33 10° NNW 06:11:10 30° NNE 06:16:45 10° E daylight
27 Feb - 07:58:47 10° WNW 08:05:13 72° SSW 08:11:50 10° SE daylight
27 Feb - 09:54:51 10° WSW 09:59:34 20° SSW 10:04:27 10° SSE daylight
27 Feb - 15:47:18 10° S 15:48:39 10° SSE 15:50:00 10° SSE daylight
27 Feb - 17:37:21 10° SSW 17:44:05 31° SSE 17:50:52 10° E daylight
27 Feb - 19:30:46 10° WSW 19:38:41 86° NNW 19:46:27 10° ENE visible
27 Feb - 21:26:49 10° W 21:33:15 28° NNW 21:39:29 10° NNE visible
28 Feb - 05:12:23 10° NNW 05:17:19 22° NNE 05:22:10 10° ENE visible
28 Feb - 07:05:02 10° WNW 07:11:31 81° NNE 07:18:03 10° ESE daylight
28 Feb - 09:00:15 10° W 09:05:39 27° SSW 09:11:13 10° SSE daylight
28 Feb - 16:44:03 10° SSW 16:49:57 23° SSE 16:55:56 10° ESE daylight
28 Feb - 18:36:51 10° SW 18:44:40 72° SSE 18:52:29 10° ENE visible
28 Feb - 20:32:03 10° W 20:39:11 37° NNW 20:46:10 10° NE visible
28 Feb - 22:31:31 10° NW 22:34:20 12° NNW 22:37:08 10° N night (unlit)
01 Mar - 04:19:23 10° NNW 04:23:21 16° NNE 04:27:15 10° ENE visible
01 Mar - 06:11:24 10° NW 06:17:48 57° NNE 06:24:09 10° ESE daylight
01 Mar - 08:05:54 10° W 08:11:49 38° SSW 08:17:52 10° SE daylight
01 Mar - 10:04:39 10° SW 10:06:37 11° SSW 10:08:37 10° S daylight
01 Mar - 15:51:02 10° SSW 15:55:46 17° SSE 16:00:36 10° ESE daylight
01 Mar - 17:43:08 10° SW 17:50:39 53° SSE 17:58:17 10° ENE daylight
01 Mar - 19:37:34 10° WSW 19:45:08 51° NNW 19:52:38 10° NE visible
01 Mar - 21:35:25 10° WNW 21:40:04 17° NNW 21:44:39 10° NNE visible
02 Mar - 03:26:47 10° N 03:29:17 12° NNE 03:31:44 10° NE visible
02 Mar - 05:17:53 10° NW 05:24:02 40° NNE 05:30:03 10° E visible
02 Mar - 07:11:45 10° WNW 07:18:04 54° SSW 07:24:24 10° SE daylight
02 Mar - 09:08:53 10° WSW 09:12:32 15° SSW 09:16:14 10° S daylight
02 Mar - 14:58:29 10° S 15:01:32 13° SSE 15:04:38 10° SE daylight
02 Mar - 16:49:36 10° SW 16:56:37 39° SSE 17:03:49 10° E daylight
02 Mar - 18:43:21 10° WSW 18:51:07 68° NNW 18:58:55 10° NE visible
02 Mar - 20:40:01 10° WNW 20:45:52 22° NNW 20:51:39 10° NNE visible
03 Mar - 04:24:29 10° NNW 04:30:13 29° NNE 04:35:45 10° E visible
03 Mar - 06:17:47 10° WNW 06:24:21 77° SSW 06:30:50 10° SE daylight
03 Mar - 08:13:52 10° WSW 08:18:34 21° SSW 08:23:20 10° SSE daylight
03 Mar - 15:56:16 10° SSW 16:02:35 29° SSE 16:09:05 10° E daylight
03 Mar - 17:49:22 10° WSW 17:57:07 90° SSE 18:05:01 10° ENE daylight
03 Mar - 19:45:05 10° W 19:51:43 30° NNW 19:58:22 10° NNE visible
03 Mar - 21:46:56 10° NNW 21:47:13 10° NNW 21:47:31 10° NNW visible
